Regional Weather Roundup
Issued by NWS Sioux Falls, SD

Home | Current Version | Previous Version | Text Only | Print | Product List | Glossary On
Versions: 1 2 3 4 5 6 7 8 9 10 11 12 13 14 15 16 17 18 19 20 21 22 23 24 25 26 27 28 29 30 31 32 33 34 35 36 37 38 39 40 41 42 43 44 45 46 47 48 49 50
569
ASUS43 KFSD 240402
RWRFSD

WEATHER ROUNDUP FOR SE SOUTH DAKOTA/SW MINNESOTA/NW IOWA
NATIONAL WEATHER SERVICE SIOUX FALLS SD
1100 PM CDT SAT SEP 23 2017

NOTE: "FAIR" INDICATES FEW OR NO CLOUDS BELOW 12,000 FEET WITH NO
SIGNIFICANT WEATHER AND OR OBSTRUCTIONS TO VISIBILITY.


SDZ038>040-050-052>070-240500-
SOUTHEAST SOUTH DAKOTA

CITY           SKY/WX    TMP DP  RH WIND       PRES   REMARKS
BROOKINGS      CLOUDY    55  54  96 NW9       29.99S
CHAMBERLAIN    DRIZZLE   54  54 100 NW9       29.92F
HURON          LGT RAIN  56  56 100 NW3       29.90F
MADISON        LGT RAIN  55  55 100 NE16G22   29.94F
MITCHELL       CLOUDY    59  58  96 E10       29.89F
SIOUX FALLS    CLOUDY    64  63  96 N17       29.93R
WINNER         CLOUDY    53  51  93 NW8       29.93F
YANKTON        CLOUDY    59  57  93 CALM      29.91S
$$

MNZ071-072-080-081-089-090-097-098-240500-
SOUTHWEST MINNESOTA

CITY           SKY/WX    TMP DP  RH WIND       PRES   REMARKS
FAIRMONT       CLOUDY    72  64  76 S9        29.93S
JACKSON        CLOUDY    64  63  94 CALM      29.94S
LUVERNE        CLOUDY    63  59  88 NW9       29.93R
MARSHALL       CLOUDY    56  56 100 NW7       29.95S FOG
MONTEVIDEO     CLOUDY    59  59 100 W3        29.94R
PIPESTONE      CLOUDY    61  57  88 N7G28     29.96R
REDWOOD FALLS  CLOUDY    64  62  93 CALM      29.92S
TRACY          FOG       59  59  99 NW3       29.94F VSB 1
WORTHINGTON    MOCLDY    62  61  96 CALM      29.94S
$$

IAZ001>003-012>014-020>022-031-032-NEZ013-014-SDZ071-240500-
NORTHWEST IOWA

CITY           SKY/WX    TMP DP  RH WIND       PRES   REMARKS
DENISON        CLEAR     73  64  73 S12G17    29.94S
ESTHERVILLE    PTCLDY    72  64  76 S9        29.93R
LE MARS        CLEAR     73  64  73 W12       29.91R
ORANGE CITY    CLEAR     75  66  73 S7        29.91R
SHELDON        PTCLDY    75  64  69 S10G17    29.89S
SIOUX CITY     PTCLDY    75  65  70 SE7       29.89R
SPENCER        PTCLDY    72  63  73 S9        29.92S
STORM LAKE     PTCLDY    72  63  73 S8        29.94R
$$

ABBREVIATIONS USED IN REMARKS
   TC - TEMPERATURE IN CELSIUS
  WCI - WIND CHILL INDEX
   HX - HEAT INDEX
  VSB - VISIBILITY





USA.gov is the U.S. government's official web portal to all federal, state and local government web resources and services.